Showing default

LEMUR 2 FURIAUS, 42840

Orbit data source: Space-Track

LEMUR 2 FURIAUS, 42840 is a payload satellite owned by Spire (US) in SSO that was launched on Fri, 14 Jul 2017 UTC via a SOYUZ-2-1A launch vehicle from the Tyuratam Missile And Space Complex (TTMTR). Payload-class satellites include a variety of spacecraft equipped with specific instruments for various scientific and technological missions. These include communications satellites like Starlink; space stations such as the ISS; scientific satellites like the Hubble; Earth observation satellites from companies like Planet Labs, Umbra, and HawkEye 360; GPS; miniature CubeSats for education and research; and military/defense satellites.

Loading next visibility...
Identifier
42840, 2017-042R
Orbit
SSO
Country
Flag of USUS
Related business
Manufacturer
Spire/Glasgow
Mission
Operational Commercial Com/MetRO
Bus & Motor
CUBESAT 3U, Unknown motor
Mass
4 kg wet, 4 kg dry
Launch date (UTC)
2017-07-14 (9 years ago)
Launch vehicle
SOYUZ-2-1A
Launch site
Tyuratam Missile And Space Complex (TTMTR)
Object type
Payload
Rocket body
Debris
Shape & HBR
Box, 0.5 m
Radar Cross Section
0.093 m², Medium (>0.1 m² and < 1m²)

Expand to show TLE details & history
Last TLE update: 12 hours ago

TLE from 12 hours ago
0 LEMUR 2 FURIAUS
1 42840U 17042R   26168.47308843  .00013294  00000-0  45598-3 0  9995
2 42840  97.3768 347.0502 0008176  68.3707 291.8403 15.30258907488258
Epoch: 2026-06-17T11:21Z
TLE epoch observation values (Epoch: 2026-06-17T11:21:14.840Z)
Latitude
-0.00011°
Longitude
-88.99189°
Altitude
476.063 km
Speed
7.629 km/s
True Right ascension
23h 08m 12s
True Declination
0° 00' 00"
Sunlit
Object was in daylight at epoch
Visualization orbit readout
Latitude
Unknown
Longitude
Unknown
Altitude
Unknown
Speed
Unknown
Apparent Right ascension
Unknown
Apparent Declination
Unknown
Sunlit
N/A
Visualization observer readout
Local Sidereal Time
09:42:56
Azimuth
Unknown
Elevation
Unknown
Doppler factor
Unknown
Orbital elements
Apogee altitude
477.591 km
Perigee altitude
466.389 km
Semi-major axis
6,850.127 km
Eccentricity
0.00082
Inclination
97.3768°
RAAN
347.0502°
Arg. of periapsis
68.3707°
True anomaly
291.7533°
Mean anomaly
291.8403°
Eccentric anomaly
291.7968°
Mean motion
3.82821 °/min
Orbital period
94.04 mins
BSTAR
0.00045598
Loading maneuver chart data...
Computing Atmospheric mass density...

Documentation

Showing up to 5 results
|